Wayne, NE

10:45 AM CST on December 03, 2016 (GMT -0600)
Wayne Municipal

Weather History for KLCG - February, 2013

Change the Weather History Date:

Thursday, February 7, 2013

  Actual Average (KOFK) Record (KOFK)
Temperature  
Mean Temperature 32 °F 25 °F  
Max Temperature 36 °F 35 °F 71 °F (1987)
Min Temperature 27 °F 14 °F -23 °F (1895)
Degree Days  
Heating Degree Days 33 40  
Month to date heating degree days 286  
Since 1 July heating degree days 4308  
Cooling Degree Days 0 0  
Month to date cooling degree days 0  
Year to date cooling degree days 0  
Moisture  
Dew Point 28 °F    
Average Humidity 89    
Maximum Humidity 99    
Minimum Humidity 82    
Precipitation  
Precipitation 0.00 in 0.02 in 1.33 in (1928)
Month to date precipitation 0.17  
Year to date precipitation 0.76  
Snow  
Snow 0.00 in 0.30 in - ()
Month to date snowfall 1.6  
Since 1 July snowfall 18.9  
Snow Depth -    
Sea Level Pressure  
Sea Level Pressure 30.10 in    
Wind  
Wind Speed 11 mph (North)    
Max Wind Speed 20 mph    
Max Gust Speed 25 mph    
Visibility 7 miles    
Events      
T = Trace of Precipitation, MM = Missing Value Source: NWS Daily Summary

Daily Weather History Graph

Daily Weather History Graph

Search for Another Location

Airport or City:

Trip Planner

Search our weather history database for the weather conditions in past years. The results will help you decide how hot, cold, wet, or windy it might be!

Date:

Astronomy

Feb. 07, 2013 Rise Set
Actual Time 7:34 AM CST 5:50 PM CST
Civil Twilight 7:04 AM CST 6:19 PM CST
Nautical Twilight 6:31 AM CST 6:53 PM CST
Astronomical Twilight 5:59 AM CST 7:25 PM CST
Moon 5:16 AM CST (2/7) 3:14 PM CST (2/7)
Length of Visible Light 11h 14m
Length of Day
10h 16m
Waning Crescent, 9% of the Moon is Illuminated
Feb 7
Waning Crescent
Feb 10
New
Feb 17
First Quarter
Feb 25
Full
Mar 4
Last Quarter

Hourly Weather History & Observations

Time (CST) Temp. Windchill Dew Point Humidity Pressure Visibility Wind Dir Wind Speed Gust Speed Precip Events Conditions
12:35 AM 36.3 °F 32.5 °F 32.0 °F 84% 29.93 in 10.0 mi NNW 4.6 mph - N/A   Clear
12:55 AM 36.5 °F 30.3 °F 31.8 °F 83% 29.93 in 10.0 mi North 8.1 mph - N/A   Clear
1:15 AM 36.0 °F 29.6 °F 31.6 °F 84% 29.94 in 10.0 mi North 8.1 mph - N/A   Clear
1:35 AM 35.6 °F 30.7 °F 31.6 °F 85% 29.94 in 10.0 mi North 5.8 mph - N/A   Clear
1:55 AM 34.7 °F 30.6 °F 31.3 °F 87% 29.94 in 10.0 mi North 4.6 mph - N/A   Clear
2:15 AM 34.7 °F 29.6 °F 30.9 °F 86% 29.95 in 10.0 mi North 5.8 mph - N/A   Clear
2:35 AM 34.9 °F 27.7 °F 30.7 °F 85% 29.96 in 10.0 mi North 9.2 mph - N/A   Clear
2:55 AM 35.6 °F 27.5 °F 30.6 °F 82% 29.95 in 10.0 mi North 11.5 mph - N/A   Clear
3:15 AM 35.6 °F 25.9 °F 30.6 °F 82% 29.95 in 10.0 mi NNW 16.1 mph - N/A   Clear
3:35 AM 35.1 °F 26.9 °F 30.2 °F 82% 29.96 in 10.0 mi NNW 11.5 mph - N/A   Clear
3:55 AM 34.7 °F 25.9 °F 30.0 °F 83% 29.95 in 10.0 mi NNW 12.7 mph - N/A   Scattered Clouds
4:15 AM 34.7 °F 26.9 °F 30.0 °F 83% 29.96 in 10.0 mi NNW 10.4 mph - N/A   Scattered Clouds
4:35 AM 34.2 °F 25.2 °F 30.0 °F 85% 29.96 in 10.0 mi NNW 12.7 mph 17.3 mph N/A   Scattered Clouds
4:55 AM 33.8 °F 23.2 °F 30.0 °F 86% 29.97 in 10.0 mi NNW 17.3 mph 20.7 mph N/A   Overcast
5:15 AM 33.1 °F 23.0 °F 29.7 °F 87% 29.98 in 10.0 mi NNW 15.0 mph 20.7 mph N/A   Scattered Clouds
5:35 AM 32.5 °F 20.8 °F 29.7 °F 89% 29.98 in 10.0 mi North 19.6 mph - N/A   Mostly Cloudy
5:55 AM 32.0 °F 21.6 °F 29.3 °F 90% 29.98 in 10.0 mi North 15.0 mph 20.7 mph N/A   Scattered Clouds
6:15 AM 31.6 °F 19.7 °F 29.3 °F 91% 30.00 in 7.0 mi North 19.6 mph 25.3 mph N/A   Mostly Cloudy
6:35 AM 31.1 °F 20.5 °F 29.1 °F 92% 30.00 in 7.0 mi NNW 15.0 mph 18.4 mph N/A   Overcast
6:55 AM 30.2 °F 18.9 °F 28.4 °F 93% 30.01 in 5.0 mi North 16.1 mph 20.7 mph N/A   Overcast
7:15 AM 29.7 °F 18.2 °F 28.4 °F 95% 30.04 in 4.0 mi NNW 16.1 mph 21.9 mph N/A   Overcast
7:35 AM 29.3 °F 19.6 °F 28.4 °F 96% 30.04 in 2.0 mi North 11.5 mph 23.0 mph N/A   Overcast
7:55 AM 29.1 °F 18.9 °F 28.4 °F 97% 30.05 in 2.0 mi North 12.7 mph 20.7 mph N/A   Overcast
8:15 AM 28.9 °F 17.7 °F 28.4 °F 98% 30.07 in 2.0 mi North 15.0 mph 18.4 mph N/A   Overcast
8:35 AM 28.9 °F 19.8 °F 28.4 °F 98% 30.09 in 1.8 mi North 10.4 mph 16.1 mph N/A   Overcast
8:55 AM 29.1 °F 19.4 °F 28.6 °F 98% 30.10 in 1.2 mi North 11.5 mph - N/A   Overcast
9:15 AM 29.1 °F 17.5 °F 28.8 °F 99% 30.10 in 1.8 mi North 16.1 mph 19.6 mph N/A   Overcast
9:35 AM 29.3 °F 17.3 °F 28.9 °F 99% 30.10 in 1.5 mi North 17.3 mph 20.7 mph N/A   Overcast
9:55 AM 28.9 °F 17.7 °F 28.4 °F 98% 30.12 in 1.2 mi NNW 15.0 mph - N/A   Overcast
10:15 AM 29.1 °F 17.1 °F 28.8 °F 99% 30.12 in 1.5 mi NNW 17.3 mph - N/A   Overcast
10:35 AM 29.1 °F 18.4 °F 28.8 °F 99% 30.12 in 1.8 mi NNW 13.8 mph 20.7 mph N/A   Overcast
10:55 AM 29.1 °F 17.5 °F 28.8 °F 99% 30.13 in 1.8 mi NNW 16.1 mph - N/A   Overcast
11:15 AM 29.3 °F 19.1 °F 29.1 °F 99% 30.13 in 3.0 mi North 12.7 mph 19.6 mph N/A   Overcast
11:35 AM 29.3 °F 18.2 °F 27.9 °F 94% 30.13 in 5.0 mi North 15.0 mph 20.7 mph N/A   Overcast
11:55 AM 29.8 °F 19.3 °F 27.9 °F 92% 30.13 in 5.0 mi NNW 13.8 mph - N/A   Overcast
12:15 PM 30.0 °F 19.5 °F 27.9 °F 92% 30.13 in 5.0 mi NNW 13.8 mph - N/A   Overcast
12:35 PM 30.0 °F 19.5 °F 27.7 °F 91% 30.13 in 7.0 mi North 13.8 mph 18.4 mph N/A   Overcast
12:55 PM 30.0 °F 18.7 °F 28.0 °F 92% 30.12 in 5.0 mi NNW 16.1 mph - N/A   Overcast
1:15 PM 29.7 °F 18.2 °F 27.9 °F 93% 30.12 in 4.0 mi North 16.1 mph 21.9 mph N/A   Overcast
1:35 PM 29.8 °F 19.3 °F 27.7 °F 92% 30.12 in 4.0 mi North 13.8 mph - N/A   Overcast
1:55 PM 30.0 °F 18.7 °F 27.5 °F 90% 30.12 in 5.0 mi North 16.1 mph - N/A   Overcast
2:15 PM 30.0 °F 19.5 °F 27.3 °F 90% 30.12 in 5.0 mi NNW 13.8 mph 19.6 mph N/A   Overcast
2:35 PM 30.2 °F 20.2 °F 26.8 °F 87% 30.12 in 7.0 mi NNW 12.7 mph 19.6 mph N/A   Overcast
2:55 PM 30.4 °F 21.0 °F 26.6 °F 86% 30.13 in 7.0 mi NNW 11.5 mph 18.4 mph N/A   Overcast
3:15 PM 30.6 °F 19.8 °F 26.6 °F 85% 30.13 in 7.0 mi NNW 15.0 mph - N/A   Overcast
3:35 PM 30.6 °F 21.2 °F 26.4 °F 85% 30.14 in 10.0 mi NNW 11.5 mph - N/A   Overcast
3:55 PM 30.6 °F 20.7 °F 26.4 °F 85% 30.14 in 10.0 mi North 12.7 mph 18.4 mph N/A   Overcast
4:15 PM 30.0 °F 20.5 °F 26.2 °F 86% 30.15 in 7.0 mi North 11.5 mph 19.6 mph N/A   Overcast
4:35 PM 29.7 °F 19.1 °F 25.7 °F 85% 30.15 in 7.0 mi North 13.8 mph 18.4 mph N/A   Overcast
4:55 PM 29.7 °F 21.3 °F 26.1 °F 86% 30.16 in 7.0 mi North 9.2 mph - N/A   Overcast
5:15 PM 29.5 °F 18.8 °F 25.7 °F 86% 30.17 in 7.0 mi NNW 13.8 mph 17.3 mph N/A   Overcast
5:35 PM 29.5 °F 19.9 °F 25.7 °F 86% 30.17 in 7.0 mi North 11.5 mph - N/A   Overcast
5:55 PM 29.7 °F 20.7 °F 25.5 °F 85% 30.17 in 10.0 mi North 10.4 mph - N/A   Overcast
6:15 PM 29.7 °F 20.7 °F 25.5 °F 85% 30.18 in 10.0 mi North 10.4 mph - N/A   Overcast
6:35 PM 29.8 °F 20.9 °F 25.5 °F 84% 30.19 in 10.0 mi North 10.4 mph 17.3 mph N/A   Overcast
6:55 PM 30.0 °F 21.7 °F 25.5 °F 83% 30.20 in 10.0 mi North 9.2 mph - N/A   Overcast
7:15 PM 29.8 °F 20.3 °F 25.5 °F 84% 30.20 in 10.0 mi North 11.5 mph - N/A   Overcast
7:35 PM 29.8 °F 21.5 °F 25.7 °F 85% 30.20 in 10.0 mi North 9.2 mph - N/A   Overcast
7:55 PM 29.8 °F 22.2 °F 25.7 °F 85% 30.20 in 10.0 mi North 8.1 mph - N/A   Overcast
8:15 PM 29.8 °F 23.0 °F 25.5 °F 84% 30.21 in 10.0 mi North 6.9 mph - N/A   Overcast
8:35 PM 29.8 °F 21.5 °F 25.5 °F 84% 30.21 in 10.0 mi North 9.2 mph - N/A   Overcast
8:55 PM 29.7 °F 21.3 °F 25.3 °F 84% 30.22 in 10.0 mi North 9.2 mph - N/A   Overcast
9:15 PM 29.3 °F 21.5 °F 25.5 °F 86% 30.22 in 10.0 mi North 8.1 mph - N/A   Overcast
9:35 PM 29.3 °F 21.5 °F 25.5 °F 86% 30.23 in 10.0 mi NNE 8.1 mph - N/A   Overcast
9:55 PM 29.1 °F 21.3 °F 25.2 °F 85% 30.24 in 10.0 mi NNE 8.1 mph - N/A   Overcast
10:15 PM 28.9 °F 21.9 °F 24.8 °F 84% 30.24 in 10.0 mi NNE 6.9 mph - N/A   Overcast
10:35 PM 28.6 °F 23.5 °F 24.8 °F 86% 30.23 in 10.0 mi NNE 4.6 mph - N/A   Overcast
10:55 PM 28.4 °F 21.2 °F 24.6 °F 86% 30.24 in 10.0 mi NE 6.9 mph - N/A   Overcast
11:15 PM 28.4 °F 24.6 °F 24.3 °F 84% 30.24 in 10.0 mi North 3.5 mph - N/A   Overcast
11:35 PM 28.2 °F 22.0 °F 24.3 °F 85% 30.24 in 10.0 mi ENE 5.8 mph - N/A   Overcast
11:55 PM 27.9 °F 20.6 °F 23.9 °F 85% 30.24 in 10.0 mi NE 6.9 mph - N/A   Overcast